Flag for Tonga Weather past 2 weeks in Nukualofa, Tonga

Now
73 °F

Passing clouds.


Feels Like: 76 °F
Forecast: 69 / 74 °F
Wind: 3 mph from North

Location: Fua'Amotu

Current Time: Jun 30, 2015 at 5:12:27 PM

Latest Report: Jun 30, 2015 at 4:00 PM


Visibility: N/A

Pressure: 30.09 "Hg

Humidity: 61%

Dew point: 59 °F

Location of NukualofaLocation

Historic Weather in Nukualofa — Graph

°F

Nukualofa temperature yesterday

Maximum temperature yesterday: 73 °F (at 12:00 PM)
Minimum temperature yesterday: 66 °F (at 12:00 AM)
Average temperature yesterday: 70 °F

Past Weeks' High & Low Weather Summary

 TemperatureHumidityPressure
High79 °F (Jun 22, 1:00 PM)100% (Jun 15, 8:00 PM)30.15 "Hg (Jun 15, 8:00 PM)
Low36 °F (Jun 16, 8:00 PM)31% (Jun 20, 7:00 AM)29.77 "Hg (Jun 24, 1:00 AM)
Average71 °F69%30.02 "Hg
* Reported Jun 15 4:00 PM — Jun 30 4:00 PM, Nukualofa, Weather by CustomWeather, © 2015

Note: Actual official high and low records may vary slightly from our data, if they occured in-between our weather recording intervals... More about our weather records

Advertising

Nukualofa weather history for previous 24 hours

 ConditionsComfort  
Time TempWeatherWind HumidityBarometerVisibility
4:00 PM
Tue, Jun 30
73 °FPassing clouds.3 mph61%30.09 "HgN/A
3:00 PM72 °FScattered clouds.10 mph61%30.07 "HgN/A
2:00 PM73 °FPassing clouds.9 mph57%30.09 "HgN/A
1:00 PM73 °FPassing clouds.13 mph57%30.12 "HgN/A
12:00 PM72 °FScattered clouds.13 mph57%30.15 "HgN/A
11:00 AM72 °FPassing clouds.6 mph61%30.15 "HgN/A
10:00 AM70 °FScattered clouds.8 mph57%30.15 "HgN/A
9:00 AM64 °FPartly sunny.No wind83%30.15 "HgN/A
8:00 AM64 °FPartly sunny.No wind83%30.15 "HgN/A
7:00 AM66 °FScattered clouds.No wind73%30.12 "HgN/A
6:00 AM66 °FPassing clouds.No wind73%30.09 "HgN/A
5:00 AM64 °FPartly cloudy.No wind83%30.09 "HgN/A
4:00 AM66 °FPartly cloudy.3 mph78%30.09 "HgN/A
3:00 AM66 °FPassing clouds.No wind83%30.09 "HgN/A
2:00 AM66 °FSprinkles. Passing clouds.No wind83%30.12 "HgN/A
1:00 AM68 °FPassing clouds.No wind69%30.12 "HgN/A
12:00 AM68 °FPassing clouds.No wind64%30.12 "HgN/A
11:00 PM
Mon, Jun 29
68 °FPassing clouds.1 mph64%30.12 "HgN/A
10:00 PM68 °FPassing clouds.1 mph60%30.12 "HgN/A
9:00 PM68 °FPassing clouds.3 mph60%30.09 "HgN/A
8:00 PM68 °FPassing clouds.2 mph60%30.09 "HgN/A
7:00 PM68 °FPassing clouds.3 mph64%30.09 "HgN/A
6:00 PM70 °FPassing clouds.2 mph60%30.07 "HgN/A
5:00 PM72 °FScattered clouds.2 mph53%30.07 "HgN/A
Weather by CustomWeather, © 2015

See weather overviewHow to use our weather pages